Location: Unspecified
(0.0000°N, 0.0000°E)
Time: 22:55:32
(UTC+00:00)

N. Korean satellite - Pass Details

Date: 19 July 2017
Orbit: 460 x 514 km, 97.2° (Epoch: 20 November)

Event Time Altitude Azimuth Distance (km) Brightness Sun altitude
Rises 19:15:32 0° 196° (SSW) 2,553 10.2 -16.1°
Reaches altitude 10° 19:18:10 10° 217° (SW) 1,657 9.4 -16.8°
Maximum altitude 19:20:31 17° 258° (WSW) 1,275 9.4 -17.3°
Drops below altitude 10° 19:22:51 10° 300° (WNW) 1,631 10.5 -17.8°
Sets 19:25:25 0° 321° (NW) 2,494 11.2 -18.4°
